Location: Clairmont
(55.2667°N, 118.8000°W)
Time: 14:55:41
(UTC+00:00)

Envisat - Pass Details

Date: 27 October 2020
Orbit: 764 x 766 km, 98.1° (Epoch: 03 December)

Event Time Altitude Azimuth Distance (km) Brightness Sun altitude
Rises 13:36:58 0° 18° (NNE) 3,248 6.4 -11.0°
Reaches altitude 10° 13:39:23 10° 24° (NNE) 2,317 5.7 -10.7°
Maximum altitude 13:44:19 47° 98° (E) 1,013 4.2 -10.0°
Drops below altitude 10° 13:49:12 10° 173° (S) 2,299 5.7 -9.3°
Sets 13:51:34 0° 179° (S) 3,221 6.4 -8.9°
